timestamp,wind_dir_avg,wind_spd_max_dir,wind_spd_avg,wind_spd_gust,battery_voltage,lat,long
2017-12-10 00:00:00+00:00,117.0,140.0,2.42,4.33,,47.59359,-54.27349
2017-12-10 00:10:00+00:00,138.0,136.0,3.71,4.36,,47.59359,-54.27349
2017-12-10 00:20:00+00:00,133.0,135.0,3.49,4.06,,47.59359,-54.27349
2017-12-10 00:30:00+00:00,126.0,133.0,2.96,4.03,,47.59359,-54.27349
2017-12-10 00:40:00+00:00,132.0,140.0,3.42,4.5,,47.59359,-54.27349
2017-12-10 00:50:00+00:00,131.0,135.0,4.32,4.89,,47.59359,-54.27349
2017-12-10 01:00:00+00:00,90.0,105.0,2.47,3.28,,47.59359,-54.27349
2017-12-10 01:10:00+00:00,131.0,134.0,2.86,4.46,,47.59359,-54.27349
2017-12-10 01:20:00+00:00,131.0,136.0,3.81,4.79,,47.59359,-54.27349
2017-12-10 01:30:00+00:00,134.0,134.0,3.67,4.3,,47.59359,-54.27349
2017-12-10 01:40:00+00:00,132.0,134.0,2.78,3.61,,47.59359,-54.27349
2017-12-10 01:50:00+00:00,129.0,141.0,1.83,2.95,,47.59359,-54.27349
2017-12-10 02:00:00+00:00,116.0,127.0,2.24,3.8,,47.59359,-54.27349
2017-12-10 02:10:00+00:00,100.0,89.0,2.47,3.62,,47.59359,-54.27349
2017-12-10 02:20:00+00:00,116.0,123.0,3.13,4.14,,47.59359,-54.27349
2017-12-10 02:30:00+00:00,92.0,91.0,2.9,4.4,,47.59359,-54.27349
2017-12-10 02:40:00+00:00,85.0,75.0,3.86,4.61,,47.59359,-54.27349
2017-12-10 02:50:00+00:00,87.0,85.0,3.35,4.45,,47.59359,-54.27349
2017-12-10 03:00:00+00:00,95.0,86.0,3.28,4.53,,47.59359,-54.27349
2017-12-10 03:10:00+00:00,94.0,100.0,2.94,4.08,,47.59359,-54.27349
2017-12-10 03:20:00+00:00,110.0,111.0,4.17,5.55,,47.59359,-54.27349
2017-12-10 03:30:00+00:00,119.0,129.0,3.12,5.55,,47.59359,-54.27349
2017-12-10 03:40:00+00:00,122.0,118.0,4.62,7.69,,47.59359,-54.27349
2017-12-10 03:50:00+00:00,129.0,134.0,4.7,6.63,,47.59359,-54.27349
2017-12-10 04:00:00+00:00,132.0,133.0,6.15,7.24,,47.59359,-54.27349
2017-12-10 04:10:00+00:00,132.0,133.0,5.91,6.75,,47.59359,-54.27349
2017-12-10 04:20:00+00:00,136.0,131.0,7.53,8.52,,47.59359,-54.27349
2017-12-10 04:30:00+00:00,133.0,135.0,7.65,8.84,,47.59359,-54.27349
2017-12-10 04:40:00+00:00,143.0,148.0,7.19,8.8,,47.59359,-54.27349
2017-12-10 04:50:00+00:00,134.0,130.0,6.93,7.98,,47.59359,-54.27349
2017-12-10 05:00:00+00:00,140.0,133.0,7.7,8.93,,47.59359,-54.27349
2017-12-10 05:10:00+00:00,140.0,138.0,7.17,8.18,,47.59359,-54.27349
2017-12-10 05:20:00+00:00,137.0,138.0,7.82,9.21,,47.59359,-54.27349
2017-12-10 05:30:00+00:00,137.0,142.0,9.49,10.66,,47.59359,-54.27349
2017-12-10 05:40:00+00:00,143.0,146.0,7.32,8.8,,47.59359,-54.27349
2017-12-10 05:50:00+00:00,141.0,139.0,9.0,11.41,,47.59359,-54.27349
2017-12-10 06:00:00+00:00,135.0,143.0,7.01,9.25,,47.59359,-54.27349
2017-12-10 06:10:00+00:00,137.0,146.0,7.12,9.15,,47.59359,-54.27349
2017-12-10 06:20:00+00:00,121.0,141.0,5.01,7.67,,47.59359,-54.27349
2017-12-10 06:30:00+00:00,127.0,137.0,6.7,9.04,,47.59359,-54.27349
2017-12-10 06:40:00+00:00,103.0,102.0,4.31,6.14,,47.59359,-54.27349
2017-12-10 06:50:00+00:00,94.0,98.0,5.58,9.86,,47.59359,-54.27349
2017-12-10 07:00:00+00:00,96.0,99.0,4.9,7.49,,47.59359,-54.27349
2017-12-10 07:10:00+00:00,98.0,118.0,3.89,5.41,,47.59359,-54.27349
2017-12-10 07:20:00+00:00,88.0,84.0,6.42,9.15,,47.59359,-54.27349
2017-12-10 07:30:00+00:00,87.0,86.0,7.56,10.04,,47.59359,-54.27349
2017-12-10 07:40:00+00:00,84.0,81.0,8.31,11.54,,47.59359,-54.27349
2017-12-10 07:50:00+00:00,87.0,78.0,6.28,9.76,,47.59359,-54.27349
2017-12-10 08:00:00+00:00,97.0,86.0,5.38,8.31,,47.59359,-54.27349
2017-12-10 08:10:00+00:00,105.0,139.0,6.09,9.8,,47.59359,-54.27349
2017-12-10 08:20:00+00:00,106.0,129.0,5.22,8.91,,47.59359,-54.27349
2017-12-10 08:30:00+00:00,111.0,132.0,4.89,8.02,,47.59359,-54.27349
2017-12-10 08:40:00+00:00,110.0,115.0,6.79,9.73,,47.59359,-54.27349
2017-12-10 08:50:00+00:00,104.0,93.0,5.91,8.89,,47.59359,-54.27349
2017-12-10 09:00:00+00:00,106.0,112.0,5.99,10.48,,47.59359,-54.27349
2017-12-10 09:10:00+00:00,110.0,104.0,5.53,10.01,,47.59359,-54.27349
2017-12-10 09:20:00+00:00,123.0,130.0,5.99,9.65,,47.59359,-54.27349
2017-12-10 09:30:00+00:00,116.0,136.0,5.86,10.84,,47.59359,-54.27349
2017-12-10 09:40:00+00:00,117.0,111.0,5.39,9.7,,47.59359,-54.27349
2017-12-10 09:50:00+00:00,122.0,126.0,5.55,8.39,,47.59359,-54.27349
2017-12-10 10:00:00+00:00,111.0,133.0,4.54,7.19,,47.59359,-54.27349
2017-12-10 10:10:00+00:00,117.0,156.0,5.94,8.97,,47.59359,-54.27349
2017-12-10 10:20:00+00:00,121.0,146.0,4.09,7.24,,47.59359,-54.27349
2017-12-10 10:30:00+00:00,131.0,141.0,5.16,6.42,,47.59359,-54.27349
2017-12-10 10:40:00+00:00,110.0,87.0,2.56,4.1,,47.59359,-54.27349
2017-12-10 10:50:00+00:00,127.0,129.0,1.73,2.57,,47.59359,-54.27349
2017-12-10 11:00:00+00:00,121.0,146.0,2.2,3.56,,47.59359,-54.27349
2017-12-10 11:10:00+00:00,108.0,139.0,2.31,3.76,,47.59359,-54.27349
2017-12-10 14:20:00+00:00,235.0,233.0,14.23,17.28,,47.59359,-54.27349
2017-12-10 14:30:00+00:00,231.0,226.0,16.45,19.68,,47.59359,-54.27349
2017-12-10 14:40:00+00:00,237.0,244.0,14.66,17.86,,47.59359,-54.27349
2017-12-10 14:50:00+00:00,241.0,241.0,16.71,19.54,,47.59359,-54.27349
2017-12-10 15:00:00+00:00,246.0,258.0,14.24,17.99,,47.59359,-54.27349
2017-12-10 15:10:00+00:00,245.0,238.0,12.71,16.05,,47.59359,-54.27349
2017-12-10 15:20:00+00:00,248.0,242.0,14.31,16.27,,47.59359,-54.27349
2017-12-10 15:30:00+00:00,247.0,243.0,14.46,17.07,,47.59359,-54.27349
2017-12-10 15:40:00+00:00,252.0,251.0,14.05,16.3,,47.59359,-54.27349
2017-12-10 15:50:00+00:00,252.0,251.0,12.03,13.95,,47.59359,-54.27349
2017-12-10 16:00:00+00:00,243.0,239.0,14.3,18.84,,47.59359,-54.27349
2017-12-10 16:10:00+00:00,233.0,235.0,14.4,18.28,,47.59359,-54.27349
2017-12-10 16:20:00+00:00,232.0,233.0,15.76,19.68,,47.59359,-54.27349
2017-12-10 16:30:00+00:00,252.0,257.0,13.92,16.56,,47.59359,-54.27349
2017-12-10 16:40:00+00:00,236.0,235.0,16.39,19.86,,47.59359,-54.27349
2017-12-10 16:50:00+00:00,229.0,224.0,15.28,17.67,,47.59359,-54.27349
2017-12-10 17:00:00+00:00,227.0,221.0,16.46,21.33,,47.59359,-54.27349
2017-12-10 17:10:00+00:00,229.0,228.0,15.68,19.55,,47.59359,-54.27349
2017-12-10 17:20:00+00:00,229.0,230.0,14.6,16.0,,47.59359,-54.27349
2017-12-10 17:30:00+00:00,228.0,228.0,16.02,18.55,,47.59359,-54.27349
2017-12-10 17:40:00+00:00,228.0,228.0,15.54,17.68,,47.59359,-54.27349
2017-12-10 17:50:00+00:00,225.0,222.0,16.52,19.53,,47.59359,-54.27349
2017-12-10 18:00:00+00:00,226.0,229.0,14.75,18.16,,47.59359,-54.27349
2017-12-10 18:10:00+00:00,228.0,227.0,13.58,16.82,,47.59359,-54.27349
2017-12-10 18:20:00+00:00,225.0,222.0,12.34,13.81,,47.59359,-54.27349
2017-12-10 18:30:00+00:00,227.0,229.0,13.53,16.12,,47.59359,-54.27349
2017-12-10 18:40:00+00:00,225.0,231.0,14.74,17.92,,47.59359,-54.27349
2017-12-10 18:50:00+00:00,226.0,228.0,13.55,15.95,,47.59359,-54.27349
2017-12-10 19:00:00+00:00,225.0,226.0,14.67,17.24,,47.59359,-54.27349
2017-12-10 19:10:00+00:00,228.0,235.0,15.3,17.46,,47.59359,-54.27349
2017-12-10 19:20:00+00:00,226.0,233.0,15.01,17.82,,47.59359,-54.27349
2017-12-10 19:30:00+00:00,224.0,221.0,14.47,17.55,,47.59359,-54.27349
2017-12-10 19:40:00+00:00,226.0,231.0,13.62,16.29,,47.59359,-54.27349
2017-12-10 19:50:00+00:00,224.0,230.0,12.58,14.33,,47.59359,-54.27349
2017-12-10 20:00:00+00:00,227.0,227.0,13.39,15.77,,47.59359,-54.27349
2017-12-10 20:10:00+00:00,226.0,224.0,13.47,16.22,,47.59359,-54.27349
2017-12-10 20:20:00+00:00,228.0,232.0,10.83,12.19,,47.59359,-54.27349
2017-12-10 20:30:00+00:00,228.0,226.0,13.1,15.95,,47.59359,-54.27349
2017-12-10 20:40:00+00:00,227.0,228.0,15.12,18.34,,47.59359,-54.27349
2017-12-10 20:50:00+00:00,224.0,227.0,14.6,18.34,,47.59359,-54.27349
2017-12-10 21:00:00+00:00,228.0,226.0,13.88,16.16,,47.59359,-54.27349
2017-12-10 21:10:00+00:00,228.0,226.0,14.59,16.52,,47.59359,-54.27349
2017-12-10 21:20:00+00:00,230.0,235.0,15.16,18.21,,47.59359,-54.27349
2017-12-10 21:30:00+00:00,230.0,227.0,17.05,20.84,,47.59359,-54.27349
2017-12-10 21:40:00+00:00,227.0,224.0,14.83,17.0,,47.59359,-54.27349
2017-12-10 21:50:00+00:00,221.0,230.0,15.83,18.83,,47.59359,-54.27349
2017-12-10 22:00:00+00:00,232.0,231.0,14.56,17.69,,47.59359,-54.27349
2017-12-10 22:10:00+00:00,229.0,226.0,15.94,20.54,,47.59359,-54.27349
2017-12-10 22:20:00+00:00,225.0,231.0,14.5,18.76,,47.59359,-54.27349
2017-12-10 22:30:00+00:00,241.0,247.0,18.39,21.42,,47.59359,-54.27349
2017-12-10 22:40:00+00:00,241.0,249.0,18.74,22.77,,47.59359,-54.27349
2017-12-10 22:50:00+00:00,240.0,242.0,15.68,21.61,,47.59359,-54.27349
2017-12-10 23:00:00+00:00,246.0,242.0,17.22,22.23,,47.59359,-54.27349
2017-12-10 23:10:00+00:00,250.0,243.0,18.06,20.95,,47.59359,-54.27349
2017-12-10 23:20:00+00:00,247.0,238.0,15.45,18.54,,47.59359,-54.27349
2017-12-10 23:30:00+00:00,245.0,251.0,13.85,17.27,,47.59359,-54.27349
2017-12-10 23:40:00+00:00,250.0,251.0,15.49,17.96,,47.59359,-54.27349
2017-12-10 23:50:00+00:00,272.0,275.0,18.28,20.28,,47.59359,-54.27349
